Terminal Aerodrome Forecast
Issued by NWS Des Moines, IA

Home | Current Version | Previous Version | Text Only | Print | Product List | Glossary On
Versions: 1 2 3 4 5 6 7 8 9 10 11 12 13 14 15 16 17 18 19 20 21 22 23 24 25 26 27 28 29 30 31 32 33 34 35 36
000
FTUS43 KDMX 201304 AAA
TAFDSM
TAF AMD
KDSM 201304Z 2013/2112 VRB06KT P6SM VCTS FEW025 SCT040CB OVC100
      TEMPO 2013/2015 VRB15G25KT 1SM TSRA BR SCT006 BKN025CB
     FM201500 17009KT P6SM FEW040 SCT120=

USA.gov is the U.S. government's official web portal to all federal, state and local government web resources and services.